WZZ1KF LCPH-LDZA

Flight info

Callsign WZZ1KF
Flight time N/A
Altitude 34000
Route GENOS DCT PEDER DCT LUTIG DCT EXELA UN127 RIKSO DCT FSK DCT DISOR DCT LONTA UL608 DOLEV DCT TIVNU DCT TEBLI
Aircraft A321/M-SDE3FGHIRWY/LB1

Departure

Time 2026-04-29 18:04
Airport Paphos International Airport (LCPH)

Arrival

Time N/A
Airport Zagreb Franjo Tuđman International Airport (LDZA)
Time Latitude Longitude Altitude Speed Heading
2026-04-29 17:46 34.71377 32.48840 44 ft 0 kts 154°
2026-04-29 17:55 34.71390 32.48832 44 ft 4 kts 148°
2026-04-29 17:55 34.71411 32.48813 42 ft 4 kts 134°
2026-04-29 17:55 34.71427 32.48788 44 ft 4 kts 115°
2026-04-29 17:55 34.71434 32.48757 44 ft 4 kts 85°
2026-04-29 17:56 34.71431 32.48740 44 ft 0 kts 65°
2026-04-29 17:58 34.71434 32.48746 43 ft 3 kts 65°
2026-04-29 17:58 34.71451 32.48793 43 ft 9 kts 65°
2026-04-29 17:59 34.71483 32.48878 46 ft 11 kts 65°
2026-04-29 17:59 34.71503 32.48932 46 ft 7 kts 65°
2026-04-29 17:59 34.71530 32.48970 46 ft 2 kts 29°
2026-04-29 17:59 34.71539 32.48976 46 ft 0 kts 25°
2026-04-29 18:00 34.71540 32.48976 46 ft 0 kts 25°
2026-04-29 18:03 34.71564 32.48988 46 ft 10 kts 22°
2026-04-29 18:03 34.71657 32.48993 47 ft 16 kts 318°
2026-04-29 18:03 34.71714 32.48828 48 ft 43 kts 290°
2026-04-29 18:04 34.71903 32.48207 44 ft 111 kts 290°
2026-04-29 18:04 34.72235 32.47111 46 ft 164 kts 290°
2026-04-29 18:04 34.72634 32.45782 594 ft 167 kts 290°
2026-04-29 18:04 34.72896 32.44417 1144 ft 168 kts 265°
2026-04-29 18:05 34.72625 32.42948 1270 ft 190 kts 251°
2026-04-29 18:05 34.72101 32.41299 1210 ft 225 kts 245°
2026-04-29 18:05 34.71403 32.39644 1993 ft 206 kts 239°
2026-04-29 18:05 34.70728 32.38201 2720 ft 205 kts 246°
2026-04-29 18:06 34.70293 32.36446 2875 ft 227 kts 259°
2026-04-29 18:06 34.69960 32.34472 3093 ft 250 kts 258°
2026-04-29 18:06 34.69562 32.32357 3507 ft 261 kts 256°